Location: Observatoire
(46.1952°N, 5.3391°E)
Time: 22:47:15
(UTC+01:00)

BlueWalker 3 - Visible Passes

Search period start: 17 January 2026 00:00
Search period end: 27 January 2026 00:00
Orbit: 451 x 463 km, 53.2° (Epoch: 17 January)

Date Brightness Start Highest point End Pass type
(mag) Time Alt. Az. Time Alt. Az. Time Alt. Az.
19 Jan 3.8 19:31:50 10° SSW 19:33:08 18° S 19:33:08 18° S visible
20 Jan 3.3 18:56:53 10° S 18:59:33 20° SE 18:59:37 20° SE visible
20 Jan 5.0 20:33:10 10° WSW 20:33:22 11° WSW 20:33:22 11° WSW visible
21 Jan 3.7 18:22:04 10° S 18:24:17 16° SE 18:26:00 12° E visible
21 Jan 3.4 19:57:47 10° WSW 19:59:46 31° WSW 19:59:46 31° WSW visible
22 Jan 1.5 19:22:24 10° SW 19:25:57 76° SE 19:26:04 75° ESE visible
23 Jan 1.8 18:47:03 10° SW 18:50:34 60° SE 18:52:18 27° ENE visible
23 Jan 4.5 20:24:55 10° W 20:26:02 18° WNW 20:26:02 18° WNW visible
24 Jan 2.2 18:11:46 10° SW 18:15:12 46° SE 18:18:27 11° ENE visible
24 Jan 3.0 19:49:22 10° W 19:52:11 36° NW 19:52:11 36° NW visible
25 Jan 2.4 19:13:49 10° W 19:17:16 45° NNW 19:18:17 34° NNE visible
26 Jan 2.2 18:38:17 10° WSW 18:41:47 53° NNW 18:44:20 17° NE visible
26 Jan 4.3 20:16:45 10° WNW 20:18:04 18° NW 20:18:04 18° NW visible
